Homer, AK

4:22 AM AKDT on April 28, 2017 (GMT -0800)
Homer

Weather History for PAHO - September, 2013

Change the Weather History Date:

Sunday, September 15, 2013

  Actual Average Record
Temperature  
Mean Temperature 52 °F -  
Max Temperature 62 °F 55 °F 65 °F (1933)
Min Temperature 44 °F 41 °F 27 °F (1987)
Degree Days  
Heating Degree Days 12    
Growing Degree Days 2 (Base 50)    
Moisture  
Dew Point 43 °F    
Average Humidity 75    
Maximum Humidity 87    
Minimum Humidity 48    
Precipitation  
Precipitation 0.00 in - - ()
Sea Level Pressure  
Sea Level Pressure 29.84 in    
Wind  
Wind Speed 2 mph (East)    
Max Wind Speed 9 mph    
Max Gust Speed -    
Visibility 9 miles    
Events Fog    
Averages and records for this station are not official NWS values.
T = Trace of Precipitation, MM = Missing Value Source: NWS Daily Summary

Daily Weather History Graph

Daily Weather History Graph

Search for Another Location

Airport or City:

Trip Planner

Search our weather history database for the weather conditions in past years. The results will help you decide how hot, cold, wet, or windy it might be!

Date:

Astronomy

Sep. 15, 2013 Rise Set
Actual Time 7:35 AM AKDT 8:25 PM AKDT
Civil Twilight 6:53 AM AKDT 9:06 PM AKDT
Nautical Twilight 6:02 AM AKDT 9:57 PM AKDT
Astronomical Twilight 5:04 AM AKDT 10:54 PM AKDT
Moon 6:39 PM AKDT (9/15) 2:34 AM AKDT (9/15)
Length of Visible Light 14h 13m
Length of Day
12h 49m
Waxing Gibbous, 83% of the Moon is Illuminated
Sep 15
Waxing Gibbous
Sep 19
Full
Sep 26
Last Quarter
Oct 4
New
Oct 11
First Quarter

Hourly Weather History & Observations

Time (AKDT) Temp. Windchill Dew Point Humidity Pressure Visibility Wind Dir Wind Speed Gust Speed Precip Events Conditions
12:53 AM 50.0 °F - 46.0 °F 86% 29.89 in 10.0 mi Calm Calm - N/A   Clear
1:53 AM 46.9 °F - 43.0 °F 86% 29.89 in 10.0 mi NE 3.5 mph - N/A   Clear
2:53 AM 48.9 °F - 45.0 °F 86% 29.89 in 10.0 mi NNE 3.5 mph - N/A   Overcast
3:53 AM 48.9 °F - 44.1 °F 83% 29.88 in 10.0 mi Calm Calm - N/A   Mostly Cloudy
4:49 AM 44.6 °F 43.1 °F 41.0 °F 87% 29.87 in 3.0 mi NNE 3.5 mph - N/A   Partly Cloudy
4:53 AM 45.0 °F 43.5 °F 41.0 °F 86% 29.87 in 3.0 mi North 3.5 mph - N/A   Clear
5:07 AM 46.4 °F - 42.8 °F 87% 29.87 in 2.0 mi Calm Calm - N/A   Clear
5:16 AM 46.4 °F - 42.8 °F 87% 29.87 in 10.0 mi Calm Calm - N/A   Clear
5:53 AM 44.1 °F - 39.9 °F 85% 29.87 in 10.0 mi Calm Calm - N/A   Clear
6:53 AM 44.1 °F - 39.9 °F 85% 29.87 in 10.0 mi Calm Calm - N/A Fog Shallow Fog
7:53 AM 44.1 °F - 39.9 °F 85% 29.87 in 10.0 mi Calm Calm - N/A Fog Shallow Fog
8:53 AM 48.0 °F - 44.1 °F 86% 29.86 in 10.0 mi ESE 4.6 mph - N/A   Clear
9:26 AM 48.2 °F - 44.6 °F 87% 29.87 in 10.0 mi Calm Calm - N/A   Scattered Clouds
9:53 AM 51.1 °F - 46.0 °F 83% 29.88 in 10.0 mi Calm Calm - N/A   Partly Cloudy
10:53 AM 54.0 °F - 46.9 °F 77% 29.87 in 10.0 mi Calm Calm - N/A   Partly Cloudy
11:53 AM 54.0 °F - 48.0 °F 80% 29.87 in 10.0 mi SSW 5.8 mph - N/A   Clear
12:53 PM 57.0 °F - 39.9 °F 53% 29.86 in 10.0 mi WSW 3.5 mph - N/A   Clear
1:53 PM 57.9 °F - 43.0 °F 58% 29.84 in 10.0 mi SW 3.5 mph - N/A   Clear
2:53 PM 59.0 °F - 39.9 °F 49% 29.83 in 10.0 mi Variable 4.6 mph - N/A   Clear
3:53 PM 59.0 °F - 46.9 °F 64% 29.82 in 10.0 mi SSE 4.6 mph - N/A   Clear
4:53 PM 61.0 °F - 41.0 °F 48% 29.80 in 10.0 mi Calm Calm - N/A   Clear
5:53 PM 60.1 °F - 44.1 °F 55% 29.80 in 10.0 mi SW 4.6 mph - N/A   Clear
6:53 PM 57.0 °F - 46.0 °F 67% 29.79 in 10.0 mi WSW 5.8 mph - N/A   Clear
7:53 PM 57.0 °F - 45.0 °F 64% 29.78 in 10.0 mi NE 3.5 mph - N/A   Clear
8:53 PM 52.0 °F - 43.0 °F 71% 29.78 in 10.0 mi NE 4.6 mph - N/A   Clear
9:53 PM 53.1 °F - 42.1 °F 66% 29.77 in 10.0 mi South 9.2 mph - N/A   Clear
10:53 PM 46.9 °F - 39.0 °F 74% 29.77 in 10.0 mi Calm Calm - N/A   Clear
11:53 PM 45.0 °F 42.6 °F 37.9 °F 76% 29.76 in 10.0 mi NE 4.6 mph - N/A   Clear